[[[{"header":{"parameterUnit":"kt","parameterCategory":2,"dx":1,"dy":1,"la1":30.253999710083008,"la2":30.299108505249023,"lo1":-89.0895004272461,"lo2":-89.04439544677734,"nx":28,"ny":28,"refTime":"2022-10-03T21:00:00:Z","depth":0,"parameterNumber":1,"parameterNumberName":"U-component_of_WINDS"},"data":[0.0084,0.0131,0.0143,0.0202,0.0224,0.0267,0.0287,0.0315,0.0341,0.0397,0.0431,0.0451,0.0484,0.0531,0.0571,0.0579,0.0596,0.0603,0.0612,0.0566,0.056,0.0555,0.0544,0.0606,0.0606,0.0657,0.0658,0.0658,0.0049,0.007,0.0105,0.0147,0.0178,0.0178,0.0213,0.0239,0.0279,0.0311,0.0346,0.0398,0.0441,0.0472,0.0517,0.0542,0.0546,0.0553,0.0551,0.0557,0.0508,0.0496,0.0549,0.0549,0.0549,0.0549,0.0549,0.0549,-0.001,0.0017,0.0049,0.0087,0.0112,0.0141,0.0171,0.0192,0.0228,0.0274,0.0283,0.033,0.0367,0.0428,0.0452,0.0491,0.0486,0.0499,0.0502,0.0505,0.0506,0.0431,0.0499,0.0499,0.0499,0.0499,0.0499,0,-0.005,-0.0042,-0.0008,0.003,0.0059,0.009,0.0121,0.014,0.0164,0.0193,0.0237,0.0265,0.0321,0.0366,0.0411,0.0434,0.044,0.0442,0.0452,0.0447,0.0437,0.0443,0.0363,0.044,0.044,0.044,0.044,0.0439,-0.0109,-0.0079,-0.0039,-0.0016,0.0003,0.004,0.0065,0.0083,0.0109,0.0152,0.0177,0.0221,0.0257,0.0328,0.0356,0.0399,0.0403,0.0431,0.041,0.0404,0.0404,0.0402,0.0406,0.0435,0.0435,0.0436,0.0436,0,-0.0143,-0.0124,-0.0072,-0.0036,-0.0025,0.0007,0.004,0.0069,0.0088,0.0132,0.0143,0.0173,0.0217,0.0241,0.0297,0.0309,0.0366,0.0368,0.0353,0.0355,0.0382,0.038,0.0467,0.048,0.0416,0.0416,0.0417,0,-0.0185,-0.0146,-0.0119,-0.009,-0.0045,-0.0028,0.0017,0.0037,0.0068,0.0102,0.0111,0.0144,0.0169,0.0206,0.0223,0.0274,0.0285,0.0297,0.0301,0.0296,0.0295,0.0312,0.0309,0.0309,0.0308,0.0308,0.0307,0,-0.0241,-0.018,-0.0133,-0.0116,-0.0072,-0.005,-0.003,0.0004,0.0029,0.0065,0.0082,0.0124,0.0147,0.018,0.0201,0.0186,0.0264,0.0247,0.0276,0.0276,0.0293,0.0291,0.0362,0.0307,0.0307,0.0307,0.0306,0,-0.0272,-0.0239,-0.0174,-0.0138,-0.0122,-0.009,-0.005,-0.0018,0.0018,0.003,0.0059,0.0068,0.0113,0.0095,0.0159,0.0133,0.0156,0.0172,0.0174,0.0181,0.016,0.0197,0.0262,0.027,0.0186,0.0185,0.0184,0,-0.034,-0.027,-0.0256,-0.0194,-0.0159,-0.0153,-0.0117,-0.0086,-0.0068,-0.0033,-0.0011,0.0029,0.002,0.0036,0.0065,0.0089,0.0123,0.0086,0.0139,0.0141,0.0129,0.0189,0.0192,0.0245,0.0171,0.0173,0.0174,0,-0.0391,-0.034,-0.033,-0.031,-0.0269,-0.0238,-0.0197,-0.0155,-0.0133,-0.0099,-0.0063,-0.0006,-0.001,0.0016,0.0028,0.0057,0.0101,0.0049,0.005,0.0058,0.0167,0.017,0.0179,0.0103,0.0105,0.0106,0.0164,0,-0.0441,-0.0404,-0.0377,-0.0333,-0.0306,-0.0266,-0.0244,-0.0219,-0.0211,-0.0193,-0.0139,-0.0107,-0.0061,-0.0046,-0.0037,0.002,0.0014,0.001,-0.0005,0.0033,0.0053,0.0061,-0.0037,-0.0037,-0.0037,-0.0038,0,0,-0.051,-0.0457,-0.0444,-0.0405,-0.0381,-0.0376,-0.0335,-0.0311,-0.0263,-0.0246,-0.0255,-0.017,-0.0143,-0.0079,-0.0066,-0.0047,-0.0034,-0.0049,0.0014,0.002,0.0025,0.0046,0.0054,-0.0038,-0.0038,-0.0038,-0.0038,0,-0.0525,-0.0502,-0.0464,-0.0439,-0.0403,-0.0386,-0.0377,-0.0338,-0.0325,-0.0273,-0.0267,-0.0232,-0.0165,-0.0137,-0.0113,-0.0056,-0.0053,-0.0044,-0.0022,0.0011,0.0017,0.0022,0.0044,0.0051,-0.0039,-0.0039,-0.0039,0,-0.057,-0.0544,-0.0524,-0.0472,-0.0448,-0.0411,-0.0423,-0.0384,-0.0355,-0.0349,-0.0298,-0.0276,-0.0236,-0.018,-0.0154,-0.0161,-0.0071,-0.0095,-0.0093,-0.0089,-0.0056,-0.0049,-0.0043,-0.0127,-0.0127,-0.0128,0,0,-0.0585,-0.0551,-0.0517,-0.0474,-0.0459,-0.0434,-0.0412,-0.0402,-0.0369,-0.0356,-0.0328,-0.0294,-0.0255,-0.0229,-0.019,-0.0132,-0.0121,-0.0107,-0.0103,-0.01,-0.0094,-0.006,-0.0053,-0.0129,-0.0129,-0.0129,0,0,-0.0592,-0.0551,-0.0551,-0.0498,-0.0468,-0.043,-0.0403,-0.04,-0.0364,-0.0366,-0.0346,-0.0336,-0.0283,-0.0261,-0.0285,-0.0195,-0.0211,-0.0204,-0.0211,-0.0205,-0.0201,-0.0207,-0.0291,0,0,0,0,0,-0.0596,-0.0557,-0.0557,-0.0545,-0.0479,-0.043,-0.0422,-0.0406,-0.0418,-0.0397,-0.0373,-0.0371,-0.027,-0.0291,-0.0278,-0.0251,-0.0149,-0.0146,-0.0142,-0.0137,-0.0132,-0.0127,0,0,0,0,0,0,-0.0591,-0.0577,-0.0557,-0.0518,-0.0503,-0.0432,-0.0448,-0.0443,-0.0419,-0.042,-0.0376,-0.037,-0.0354,-0.0296,-0.0285,-0.026,-0.0295,-0.0148,-0.0145,-0.0142,-0.0135,-0.0131,-0.0127,0,0,0,0,0,-0.0587,-0.0576,-0.0475,-0.0519,-0.0506,-0.0475,-0.045,-0.0445,-0.0426,-0.039,-0.0384,-0.0417,-0.0354,-0.0343,-0.0289,-0.0265,-0.0302,-0.0298,-0.0146,-0.0144,-0.0141,-0.0133,0,0,0,0,0,0,-0.0584,-0.057,-0.0472,-0.0467,-0.0533,-0.0479,-0.047,-0.0447,-0.0398,-0.0392,-0.043,-0.0431,-0.0353,-0.0345,-0.0336,-0.0268,-0.0309,-0.0304,-0.0302,-0.0144,-0.0142,-0.0141,0,0,0,0,0,0,-0.0576,-0.0566,-0.047,-0.0488,-0.0486,-0.0482,-0.0474,-0.0426,-0.0397,-0.044,-0.044,-0.0431,-0.0364,-0.0346,-0.0339,-0.0265,-0.0314,-0.031,-0.0307,-0.0305,-0.0143,-0.0141,0,0,0,0,0,0,-0.0572,-0.0563,-0.049,-0.0488,-0.0485,-0.0431,-0.0439,-0.0372,-0.0416,-0.0442,-0.042,-0.0421,-0.0365,-0.0359,-0.0341,-0.027,-0.0266,-0.0314,-0.0311,-0.0309,-0.0307,0,0,0,0,0,0,0,-0.0568,-0.063,-0.05,-0.0487,-0.0485,-0.0424,-0.0423,-0.0422,-0.0417,-0.0418,-0.0419,-0.042,-0.0337,-0.0333,-0.0328,-0.0273,0,0,-0.0314,-0.0312,0,0,0,0,0,0,0,0,-0.0633,-0.0631,-0.05,-0.0499,-0.0498,-0.0424,-0.0423,-0.0422,-0.0417,-0.0418,-0.0419,-0.042,-0.0336,-0.0332,-0.0329,0,0,0,0,0,0,0,0,0,0,0,0,0,0,0,-0.05,-0.0499,0,-0.0424,-0.0423,-0.0422,-0.0417,-0.0418,-0.0419,-0.042,-0.0335,-0.0332,-0.0329,0,0,0,0,0,0,0,0,0,0,0,0,0,0,0,0,0,0,0,0,0,0,0,0,0,0,0,0,0,0,0,0,0,0,0,0,0,0,0,0,0,0,0,0,0,0,0,0,0,0,0,0,0,0,0,0,0,0,0,0,0,0,0,0,0,0,0,0,0]}],[{"header":{"parameterUnit":"kt","parameterCategory":2,"dx":1,"dy":1,"la1":30.253999710083008,"la2":30.299108505249023,"lo1":-89.0895004272461,"lo2":-89.04439544677734,"nx":28,"ny":28,"refTime":"2022-10-03T21:00:00:Z","depth":0,"parameterNumber":2,"parameterNumberName":"V-component_of_WINDS"},"data":[-2.2916,-2.2752,-2.2765,-2.2584,-2.2564,-2.2442,-2.2402,-2.2351,-2.2312,-2.2167,-2.2085,-2.2077,-2.2041,-2.1944,-2.1855,-2.1853,-2.1815,-2.1753,-2.1761,-2.2031,-2.2069,-2.2105,-2.2147,-2.1744,-2.1744,-2.1481,-2.1479,-2.1477,-2.3128,-2.3107,-2.3013,-2.2929,-2.285,-2.2919,-2.2857,-2.2785,-2.2672,-2.2622,-2.254,-2.2411,-2.2308,-2.2291,-2.2194,-2.2118,-2.2143,-2.2091,-2.2097,-2.2091,-2.238,-2.2424,-2.2073,-2.2073,-2.2073,-2.2073,-2.2073,-2.2074,-2.3516,-2.3416,-2.3372,-2.327,-2.323,-2.3173,-2.3079,-2.3071,-2.2977,-2.2877,-2.2904,-2.2774,-2.2723,-2.2606,-2.2567,-2.2467,-2.2525,-2.2469,-2.2456,-2.2442,-2.2429,-2.2817,-2.245,-2.2451,-2.2452,-2.2452,-2.2453,0,-2.3805,-2.3821,-2.3729,-2.3642,-2.3566,-2.3497,-2.3435,-2.3376,-2.3407,-2.3327,-2.3211,-2.3145,-2.3015,-2.2906,-2.2813,-2.2783,-2.2841,-2.2845,-2.2808,-2.2796,-2.28,-2.2801,-2.3276,-2.2855,-2.2858,-2.2861,-2.2862,-2.2864,-2.4201,-2.4079,-2.4035,-2.3969,-2.3937,-2.3827,-2.3764,-2.38,-2.3731,-2.3658,-2.3565,-2.3456,-2.3369,-2.3178,-2.3163,-2.3063,-2.309,-2.293,-2.3074,-2.3071,-2.3092,-2.31,-2.309,-2.2901,-2.2896,-2.2892,-2.2889,0,-2.4424,-2.4439,-2.4252,-2.4217,-2.4205,-2.4075,-2.4045,-2.3943,-2.3943,-2.3803,-2.3772,-2.377,-2.3653,-2.3664,-2.3528,-2.3538,-2.3328,-2.3355,-2.3351,-2.3357,-2.3218,-2.3232,-2.2755,-2.2697,-2.3111,-2.3107,-2.3104,0,-2.4768,-2.4604,-2.4637,-2.4527,-2.4349,-2.4389,-2.4211,-2.4193,-2.4146,-2.4036,-2.4104,-2.3998,-2.4028,-2.3924,-2.3936,-2.3766,-2.3738,-2.3736,-2.3741,-2.373,-2.3731,-2.3692,-2.3712,-2.3753,-2.3755,-2.3757,-2.3759,0,-2.5116,-2.4938,-2.4761,-2.4722,-2.4664,-2.4579,-2.455,-2.4497,-2.4431,-2.4348,-2.4307,-2.4204,-2.4148,-2.4069,-2.4086,-2.4185,-2.3876,-2.4014,-2.3874,-2.3873,-2.3803,-2.3807,-2.3383,-2.3762,-2.3763,-2.3764,-2.3764,0,-2.5395,-2.5312,-2.505,-2.5006,-2.4956,-2.4836,-2.4742,-2.4641,-2.4579,-2.458,-2.4513,-2.4558,-2.4406,-2.4544,-2.4336,-2.4461,-2.4402,-2.4385,-2.4375,-2.4361,-2.4516,-2.4278,-2.3872,-2.3831,-2.4352,-2.4357,-2.4362,0,-2.5793,-2.553,-2.5562,-2.5309,-2.519,-2.5278,-2.5145,-2.5087,-2.5077,-2.4973,-2.4961,-2.4839,-2.4943,-2.4906,-2.4802,-2.4783,-2.4621,-2.4805,-2.4655,-2.4649,-2.4674,-2.4299,-2.4237,-2.396,-2.4424,-2.4418,-2.4413,0,-2.6102,-2.6031,-2.5983,-2.5942,-2.5869,-2.5766,-2.5612,-2.5501,-2.5432,-2.5353,-2.5227,-2.5052,-2.5126,-2.506,-2.5083,-2.4974,-2.4732,-2.5065,-2.5064,-2.5008,-2.4454,-2.4398,-2.4351,-2.4772,-2.4764,-2.4758,-2.4462,0,-2.6529,-2.6395,-2.6266,-2.6164,-2.6086,-2.5925,-2.5936,-2.5853,-2.5887,-2.5878,-2.5688,-2.5633,-2.5513,-2.546,-2.5486,-2.5231,-2.5275,-2.5351,-2.5485,-2.5238,-2.5141,-2.5101,-2.563,-2.5634,-2.5638,-2.564,0,0,-2.6907,-2.6716,-2.675,-2.6602,-2.6539,-2.6628,-2.6456,-2.6403,-2.629,-2.6244,-2.632,-2.6064,-2.6014,-2.578,-2.5704,-2.5652,-2.5609,-2.5691,-2.5355,-2.5323,-2.5293,-2.5189,-2.5148,-2.5646,-2.5647,-2.5648,-2.5649,0,-2.7065,-2.7018,-2.6847,-2.6796,-2.672,-2.6719,-2.6678,-2.6615,-2.6601,-2.6411,-2.6484,-2.6369,-2.6157,-2.6098,-2.604,-2.5721,-2.578,-2.5683,-2.5512,-2.5388,-2.5351,-2.5319,-2.521,-2.517,-2.5657,-2.5657,-2.5657,0,-2.7374,-2.7331,-2.7248,-2.7105,-2.7053,-2.6923,-2.7069,-2.6922,-2.6826,-2.6922,-2.6732,-2.6701,-2.6619,-2.6394,-2.6292,-2.6357,-2.5937,-2.6066,-2.6045,-2.6033,-2.5913,-2.587,-2.5831,-2.6343,-2.6345,-2.6348,0,0,-2.7508,-2.7383,-2.7343,-2.7138,-2.7102,-2.7096,-2.7025,-2.705,-2.6976,-2.6946,-2.6907,-2.6831,-2.6711,-2.6629,-2.6514,-2.6264,-2.6251,-2.6151,-2.6118,-2.6092,-2.6066,-2.5938,-2.5895,-2.6357,-2.6357,-2.6357,0,0,-2.757,-2.7519,-2.7565,-2.7329,-2.726,-2.7203,-2.7077,-2.7131,-2.7029,-2.7047,-2.7076,-2.7056,-2.6845,-2.6809,-2.693,-2.6561,-2.6693,-2.6664,-2.6592,-2.6551,-2.6519,-2.6532,-2.7066,0,0,0,0,0,-2.7736,-2.7527,-2.7569,-2.7531,-2.7344,-2.7181,-2.7157,-2.7178,-2.7275,-2.7176,-2.7152,-2.7217,-2.6882,-2.699,-2.695,-2.6813,-2.6473,-2.6452,-2.6433,-2.6282,-2.6239,-2.6203,0,0,0,0,0,0,-2.7721,-2.7674,-2.7575,-2.751,-2.7468,-2.7189,-2.7357,-2.7357,-2.7286,-2.7302,-2.722,-2.7215,-2.7227,-2.7012,-2.6975,-2.6845,-2.7079,-2.6465,-2.6448,-2.6432,-2.6267,-2.6232,-2.6202,0,0,0,0,0,-2.771,-2.7672,-2.7367,-2.7513,-2.7476,-2.7456,-2.7365,-2.7366,-2.7311,-2.7271,-2.7268,-2.7334,-2.7223,-2.7193,-2.699,-2.6862,-2.7104,-2.7091,-2.6454,-2.644,-2.6427,-2.625,0,0,0,0,0,0,-2.7701,-2.7671,-2.736,-2.735,-2.7593,-2.7472,-2.7454,-2.7374,-2.7285,-2.728,-2.7387,-2.7401,-2.7217,-2.7195,-2.7171,-2.6867,-2.7125,-2.7111,-2.7103,-2.6443,-2.6432,-2.6423,0,0,0,0,0,0,-2.7691,-2.7661,-2.7355,-2.7455,-2.7456,-2.7486,-2.747,-2.7299,-2.7283,-2.7406,-2.7415,-2.7394,-2.725,-2.7195,-2.7177,-2.6909,-2.7141,-2.7128,-2.7119,-2.7113,-2.6434,-2.6426,0,0,0,0,0,0,-2.7679,-2.7653,-2.7458,-2.7458,-2.746,-2.7346,-2.7335,-2.7141,-2.7373,-2.7408,-2.7395,-2.7404,-2.7248,-2.7231,-2.7181,-2.6919,-2.6911,-2.7141,-2.7132,-2.7125,-2.7121,0,0,0,0,0,0,0,-2.7669,-2.7836,-2.7422,-2.7462,-2.7464,-2.7255,-2.7252,-2.7249,-2.7376,-2.7384,-2.7392,-2.74,-2.7218,-2.7203,-2.7189,-2.6928,0,0,-2.7142,-2.7136,0,0,0,0,0,0,0,0,-2.7848,-2.7839,-2.7421,-2.7419,-2.7417,-2.7254,-2.7252,-2.7249,-2.7377,-2.7384,-2.7391,-2.7397,-2.7214,-2.7202,-2.719,0,0,0,0,0,0,0,0,0,0,0,0,0,0,0,-2.7421,-2.7419,0,-2.7254,-2.7252,-2.725,-2.7378,-2.7384,-2.7389,-2.7394,-2.7211,-2.7201,-2.7191,0,0,0,0,0,0,0,0,0,0,0,0,0,0,0,0,0,0,0,0,0,0,0,0,0,0,0,0,0,0,0,0,0,0,0,0,0,0,0,0,0,0,0,0,0,0,0,0,0,0,0,0,0,0,0,0,0,0,0,0,0,0,0,0,0,0,0,0,0]}]]]